Location: *
(40.4000°N, 15.1200°E)
Time: 07:56:28
(UTC+00:00)

SL-16 R/B - Pass Details

Date: 09 April 2020
Orbit: 842 x 846 km, 71.0° (Epoch: 25 May)

Event Time Altitude Azimuth Distance (km) Brightness Sun altitude
Rises 21:31:29 0° 344° (NNW) 3,413 6.3 -37.4°
Reaches altitude 10° 21:34:14 10° 355° (N) 2,474 5.3 -37.6°
Enters shadow 21:36:45 22° 15° (NNE) 1,755 4.2 -37.8°
